THOR ABLESTAR DEB, 128

Orbit data source: Space-Track

THOR ABLESTAR DEB, 128 is space debris in LEO originally from a launch on Thu, 29 Jun 1961 UTC launched from the Air Force Eastern Test Range (AFETR). Debris objects in space refer to the collection of defunct objects orbiting the Earth. Examples of debris include non-operational satellites, rocket bodies, and fragments generated from explosions, collisions, or faulty payload assembly.

Loading next visibility...
Identifier
128, 1961-015N
Orbit
LEO
Country
Flag of USUS
Related business
Manufacturer
Unknown
Mission
Spacecraft
Bus & Motor
Unknown
Mass
Unknown
Launch date (UTC)
1961-06-29 (65 years ago)
Launch vehicle
Unknown
Launch site
Air Force Eastern Test Range (AFETR)
Object type
Payload
Rocket body
Debris
Shape & HBR
Unknown shape, 0.3 m
Radar Cross Section
Medium (>0.1 m² and <1 m²)

Expand to show TLE details & history
Last TLE update: 20 hours ago

TLE from 20 hours ago
0 THOR ABLESTAR DEB
1 00128U 61015N   26174.38335215  .00000048  00000-0  80374-4 0  9992
2 00128  66.6730 164.4740 0099055 311.3650  47.8945 14.02035891315946
Epoch: 2026-06-23T09:12Z
TLE epoch observation values (Epoch: 2026-06-23T09:12:01.625Z)
Latitude
-0.00001°
Longitude
114.91152°
Altitude
840.972 km
Speed
7.457 km/s
True Right ascension
10h 57m 53s
True Declination
0° 00' 00"
Sunlit
Object was in daylight at epoch
Visualization orbit readout
Latitude
Unknown
Longitude
Unknown
Altitude
Unknown
Speed
Unknown
Apparent Right ascension
Unknown
Apparent Declination
Unknown
Sunlit
N/A
Visualization observer readout
Local Sidereal Time
16:36:55
Azimuth
Unknown
Elevation
Unknown
Doppler factor
Unknown
Orbital elements
Apogee altitude
957.099 km
Perigee altitude
813.206 km
Semi-major axis
7,263.29 km
Eccentricity
0.00991
Inclination
66.673°
RAAN
164.474°
Arg. of periapsis
311.365°
True anomaly
48.74365°
Mean anomaly
47.8945°
Eccentric anomaly
48.31837°
Mean motion
3.50625 °/min
Orbital period
102.67 mins
BSTAR
0.000080374

Documentation

Showing up to 5 results
|